AO-07 1 07530U 74089B 22307.37768462 -.00000012 00000-0 21414-3 0 9999 2 07530 101.9233 287.7689 0012320 134.5528 41.3558 12.53658281194875 UO-11 1 14781U 84021B 22307.43879330 .00001585 00000-0 19667-3 0 9998 2 14781 97.6329 288.6614 0007226 216.2648 143.8078 14.83935226 60651 AO-16 1 20439U 90005D 22307.51890510 .00000238 00000-0 10378-3 0 9990 2 20439 98.8621 287.2675 0011417 140.0963 343.5424 14.32953217712583 LO-19 1 20442U 90005G 22307.46057325 .00000242 00000-0 10505-3 0 9994 2 20442 98.8138 274.5700 0012699 118.2070 242.0397 14.33106543713077 HUBBLE 1 20580U 90037B 22307.48697372 .00004274 00000-0 23752-3 0 9993 2 20580 28.4711 327.1925 0002840 100.0207 20.9980 15.11177376587268 MET-2/21 1 22782U 93055A 22307.40245243 .00000030 00000-0 14016-4 0 9990 2 22782 82.5475 263.9429 0021456 320.7327 151.1012 13.83863084473224 AO-27 1 22825U 93061C 22307.10620575 .00000130 00000-0 67860-4 0 9993 2 22825 98.8739 340.9902 0008623 14.9861 345.1574 14.30205521517971 IO-26 1 22826U 93061D 22307.30556091 .00000144 00000-0 72925-4 0 9990 2 22826 98.8684 341.0648 0008884 0.3909 359.7278 14.30555558518264 FO-29 1 24278U 96046B 22307.44471049 .00000017 00000-0 56312-4 0 9994 2 24278 98.5146 311.9987 0349277 282.6840 73.5472 13.53123645294408 NOAA-15 1 25338U 98030A 22307.54315368 .00000185 00000-0 95546-4 0 9997 2 25338 98.6325 335.1871 0009378 249.7816 110.2356 14.26190639272840 GO-32 1 25397U 98043D 22307.36389498 .00000128 00000-0 75660-4 0 9993 2 25397 98.8356 258.3005 0002331 76.2622 283.8816 14.23783983263199 ISS 1 25544U 98067A 22307.78905273 .00016722 00000-0 30321-3 0 9995 2 25544 51.6454 5.0131 0006369 36.0986 71.1952 15.49715636366831 NO-44 1 26931U 01043C 22307.42372285 .00000236 00000-0 12179-3 0 9990 2 26931 67.0523 59.6790 0005281 262.9979 97.0522 14.30756273101287 SO-50 1 27607U 02058C 22307.19626968 .00001566 00000-0 23322-3 0 9991 2 27607 64.5547 237.2587 0081499 268.0458 91.1310 14.76378202 69069 CO-55 1 27844U 03031E 22307.48711476 .00000414 00000-0 20513-3 0 9997 2 27844 98.6809 313.0930 0010817 62.5862 297.6415 14.22529474 3672 CO-57 1 27848U 03031J 22307.42345504 .00000333 00000-0 17017-3 0 9995 2 27848 98.6850 313.5185 0010796 75.8411 284.3966 14.22075477 3417 RS-22 1 27939U 03042A 22307.56595766 .00001347 00000-0 24574-3 0 9992 2 27939 98.2123 88.4309 0013708 126.2434 234.0055 14.67582711 21442 NOAA-18 1 28654U 05018A 22307.51371385 .00000226 00000-0 14570-3 0 9996 2 28654 98.9364 17.7523 0013339 300.0780 59.9068 14.12800462899616 CO-58 1 28895U 05043F 22307.35635695 .00001666 00000-0 32189-3 0 9995 2 28895 98.1258 76.7659 0017581 66.1598 294.1446 14.64620826907740 Falconsat-3 1 30776U 07006E 22307.34615518 .00130745 00000-0 10832-2 0 9999 2 30776 35.4276 62.6801 0004304 46.6569 313.4526 15.68842794871275 CO-65 1 32785U 08021C 22307.39242601 .00003961 00000-0 41405-3 0 9993 2 32785 97.6759 274.0092 0013958 128.0344 232.2137 14.90148850787172 AAUSAT2 1 32788U 08021F 22307.44255925 .00009407 00000-0 78373-3 0 9990 2 32788 97.5500 288.0386 0012309 28.8051 331.3849 14.98781092789240 DO-64 1 32789U 08021G 22307.29023985 .00023435 00000-0 11709-2 0 9999 2 32789 97.3301 328.7989 0009174 187.8392 172.2700 15.17428212792953 CO-66 1 32791U 08021J 22306.90800550 .00004692 00000-0 45021-3 0 9999 2 32791 97.6288 278.8943 0014424 88.1507 272.1365 14.93484319787856 RS-30 1 32953U 08025A 22307.53286694 .00000024 00000-0 10000-3 0 9994 2 32953 82.4984 97.4436 0018874 318.1400 41.8237 12.43114700655618 PRISM 1 33493U 09002B 22307.46077565 .00009345 00000-0 72985-3 0 9992 2 33493 98.2513 302.1759 0017435 79.9436 280.3753 15.01241635749823 NOAA-19 1 33591U 09005A 22307.53090698 .00000240 00000-0 15454-3 0 9997 2 33591 99.1336 344.4999 0014360 154.2081 205.9809 14.12631777707827 SRMSAT 1 37841U 11058D 22306.90849038 .00000445 00000-0 99628-4 0 9993 2 37841 19.9705 137.9879 0011893 65.4606 68.0621 14.10788789570816 HRBE 1 37855U 11061F 22307.45662846 .00015762 00000-0 64420-3 0 9992 2 37855 101.7192 140.5826 0145541 4.9931 355.2698 15.15315622602268 RS-40 1 38735U 12041C 22307.62802795 .00000049 00000-0 28449-3 0 9990 2 38735 82.4788 178.7352 0018038 67.3510 292.9474 12.42588714465802 ZACUBE-1 1 39417U 13066B 22307.53581493 .00004099 00000-0 49817-3 0 9996 2 39417 97.6549 272.9198 0055788 309.8186 49.8125 14.82922133483731 Delfi-N3xt 1 39428U 13066N 22307.36844646 .00003641 00000-0 55700-3 0 9991 2 39428 97.8202 235.8365 0115237 192.7652 167.0631 14.69911184478938 GOMX-1 1 39430U 13066Q 22307.47843678 .00002714 00000-0 48774-3 0 9993 2 39430 97.7961 206.6683 0147908 327.0008 32.2035 14.60562525476581 LO-74 1 39440U 13066AA 22307.38346809 .00003711 00000-0 50104-3 0 9996 2 39440 97.7433 259.2452 0079305 41.6491 319.0723 14.77485081480791 AO-73 1 39444U 13066AE 22307.44678847 .00004889 00000-0 57654-3 0 9991 2 39444 97.6423 275.2654 0054196 297.1189 62.4504 14.84131820482131 SPROUT 1 39770U 14029E 22307.30344461 .00012595 00000-0 12176-2 0 9992 2 39770 97.9546 65.3585 0008129 353.2928 6.8319 14.92914022458369 DTUSAT-2 1 40030U 14033W 22307.30205567 .00004877 00000-0 50350-3 0 9992 2 40030 97.9451 240.7144 0010419 324.6247 35.4279 14.90605410454327 EO-80 1 40032U 14033Y 22307.34385219 .00004265 00000-0 44130-3 0 9991 2 40032 97.9451 240.7718 0010488 325.1564 34.8966 14.90584625454308 HODOYOSHI-1 1 40299U 14070B 22307.47277863 .00008689 00000-0 31611-3 0 9990 2 40299 97.2279 11.5052 0012108 11.9789 48.7040 15.28405250444280 FIREBIRD FU3 1 40377U 15003B 22307.49895570 .00038966 00000-0 10023-2 0 9991 2 40377 99.0784 203.7730 0087032 272.7412 86.3867 15.35294488429706 FIREBIRD FU4 1 40378U 15003C 22307.18930142 .00039036 00000-0 10019-2 0 9997 2 40378 99.0793 203.6382 0086996 273.3383 85.7907 15.35362981429679 GRIFEX 1 40379U 15003D 22307.53747929 .00025329 00000-0 82328-3 0 9999 2 40379 99.0896 188.2783 0107582 320.5249 38.8181 15.26396286428811 XW-2A 1 40903U 15049E 22307.46999230 .00047513 00000-0 56940-3 0 9998 2 40903 97.1600 6.6444 0006753 330.8258 153.7696 15.60780002400881 XW-2C 1 40906U 15049H 22307.47248772 .00009181 00000-0 42068-3 0 9995 2 40906 97.4974 309.9344 0011660 228.1261 286.3372 15.20638027394033 XW-2D 1 40907U 15049J 22307.49407015 .00010480 00000-0 46756-3 0 9997 2 40907 97.4963 310.0729 0010975 221.9046 297.0604 15.21524430394098 LILACSAT-2 1 40908U 15049K 22307.49544132 .00005001 00000-0 25842-3 0 9996 2 40908 97.5232 306.8189 0013104 252.9034 266.9562 15.16671793393557 XW-2E 1 40909U 15049L 22307.48367870 .00016714 00000-0 64442-3 0 9990 2 40909 97.4648 314.9524 0010527 194.1267 320.9384 15.26342293394591 XW-2F 1 40910U 15049M 22307.52537722 .00016640 00000-0 65197-3 0 9998 2 40910 97.4738 314.1630 0011375 196.6107 315.5611 15.25798820394363 XW-2B 1 40911U 15049N 22307.51944142 .00010452 00000-0 46813-3 0 9995 2 40911 97.4947 310.6503 0010895 223.8219 236.4409 15.21392658393987 DCBB 1 40912U 15049P 22307.49495794 .00018765 00000-0 66021-3 0 9995 2 40912 97.4347 318.4853 0012632 159.8782 359.8152 15.29309979394977 TW-1A 1 40928U 15051D 22307.51274516 .00174908 00000-0 99805-3 0 9993 2 40928 97.0220 330.1690 0005222 178.4116 340.2230 15.78402221400006 IO-86 1 40931U 15052B 22307.16369494 .00001197 00000-0 76870-4 0 9996 2 40931 5.9970 259.5165 0013881 334.2602 37.6384 14.76905597383887 AO-85 1 40967U 15058D 22306.17668597 .00003595 00000-0 39964-3 0 5269 2 40967 64.7764 12.7335 0176505 154.7719 206.2142 14.78076009 81010 ATHENOXAT-1 1 41168U 15077C 22307.75296439 .00029991 00000-0 11170-2 0 9991 2 41168 14.9825 135.2397 0008862 47.5952 45.7867 15.25310001381576 ChubuSat-2 1 41338U 16012B 22307.46151350 .00003824 00000-0 27860-3 0 9991 2 41338 31.0024 218.4833 0012758 92.7060 267.5036 15.01948230368398 ChubuSat-3 1 41339U 16012C 22307.44881015 .00003343 00000-0 24256-3 0 9990 2 41339 31.0103 215.4747 0012496 99.8291 260.3765 15.01979214368397 Horyu-4 1 41340U 16012D 22307.37248605 .00006002 00000-0 41410-3 0 9992 2 41340 31.0035 191.4031 0012437 145.3174 214.8275 15.04286888368654 e-st@r-II 1 41459U 16025D 22307.45929229 .00026338 00000-0 10432-2 0 9997 2 41459 98.1951 123.3339 0136552 156.4317 204.3273 15.17111741358546 AAUSAT4 1 41460U 16025E 22307.47055756 .00040616 00000-0 13337-2 0 9998 2 41460 98.1810 130.9925 0111551 127.4259 233.7168 15.25567122359088 LO-87 1 41557U 16033B 22307.57795747 .00025633 00000-0 67084-3 0 9997 2 41557 97.3895 45.8495 0009399 235.0697 249.6480 15.38668067358742 NuSat2 1 41558U 16033C 22307.62817233 .00025783 00000-0 63428-3 0 9993 2 41558 97.4135 52.4042 0009079 221.9954 251.9691 15.40562442359045 Lapan A3 1 41603U 16040E 22307.60488813 .00002341 00000-0 10805-3 0 9994 2 41603 97.1928 338.4984 0014196 37.5634 120.5887 15.21075156353184 Pratham 1 41783U 16059A 22307.09073594 .00000702 00000-0 14310-3 0 9996 2 41783 97.8986 342.9964 0034716 95.8016 264.7146 14.63485695325909 TY-1 1 41844U 16066D 22307.49097545 .00023335 00000-0 70300-3 0 9996 2 41844 97.3869 319.1708 0013270 143.5445 12.7173 15.34247251332893 CAS-2T 1 41847U 16066G 22307.15989942 .00001968 00000-0 30203-3 0 9999 2 41847 98.5360 11.5942 0363454 154.7148 207.2333 14.38855796314299 EO-88 1 42017U 17008BX 22307.12758581 .00036503 00000-0 91639-3 0 9999 2 42017 97.2527 11.5282 0005456 106.0358 254.1490 15.39900130318378 CAS-4B 1 42759U 17034B 22307.41130834 .00007171 00000-0 41049-3 0 9997 2 42759 43.0174 286.2224 0008625 82.3014 48.5398 15.13049505297393 CAS-4A 1 42761U 17034D 22307.44061900 .00006948 00000-0 39711-3 0 9994 2 42761 43.0176 284.7469 0008826 85.0953 53.7387 15.13137795297404 NIUSat 1 42766U 17036B 22307.08406915 .00015970 00000-0 56963-3 0 9993 2 42766 97.1888 340.0525 0012633 185.5602 174.5500 15.28891101297960 Aalto 1 1 42775U 17036L 22307.53584147 .00012571 00000-0 46634-3 0 9995 2 42775 97.1842 340.1349 0011717 183.5937 176.5221 15.27664709297992 URSA MAIOR 1 42776U 17036M 22307.32698351 .00014095 00000-0 51048-3 0 9994 2 42776 97.1855 340.8183 0011400 182.8004 177.3174 15.28432520298000 Max Valier Sat 1 42778U 17036P 22307.35108730 .00016363 00000-0 57354-3 0 9992 2 42778 97.1906 343.7588 0010077 181.2216 178.9002 15.29484018298116 Pegasus 1 42784U 17036V 22307.07072594 .00021040 00000-0 67802-3 0 9993 2 42784 97.1844 344.6612 0009314 180.8583 179.2645 15.32161347298215 NUDATSat 1 42787U 17036Y 22307.56682562 .00040429 00000-0 10142-2 0 9998 2 42787 97.1857 350.4956 0007630 160.0239 200.1320 15.39886133298459 SUCHAI 1 1 42788U 17036Z 22307.33331605 .00027658 00000-0 81871-3 0 9990 2 42788 97.1843 346.9854 0008763 172.8973 187.2397 15.34816949298458 SKCUBE 1 42789U 17036AA 22307.34856383 .00023367 00000-0 71920-3 0 9994 2 42789 97.1839 346.2754 0008990 173.4189 186.7174 15.33611886298330 VZLUSAT 1 1 42790U 17036AB 22307.07280384 .00042737 00000-0 10837-2 0 9999 2 42790 97.1856 349.9372 0007796 163.0356 197.1153 15.39542626298526 VENTA 1 1 42791U 17036AC 22307.05876147 .00020791 00000-0 66264-3 0 9998 2 42791 97.1850 345.7331 0008650 176.4982 183.6322 15.32523751298263 Robusta 1B 1 42792U 17036AD 22307.11587186 .00025344 00000-0 75970-3 0 9991 2 42792 97.1845 346.7396 0008327 173.5103 186.6250 15.34440362298355 D-SAT 1 42794U 17036AF 22307.48973624 .00005593 00000-0 46732-3 0 9997 2 42794 97.4570 305.6475 0120869 340.3984 19.2610 14.93333422292227 TechnoSat 1 42829U 17042E 22307.51217272 .00002589 00000-0 25877-3 0 9996 2 42829 97.4034 153.4533 0012323 261.6416 98.3407 14.92228089288829 AO-91 1 43017U 17073E 22307.20163802 .00005409 00000-0 39869-3 0 9995 2 43017 97.6552 195.6659 0246760 93.0456 269.9022 14.82436915267664 PICSAT 1 43132U 18004X 22307.18809008 .00026045 00000-0 75434-3 0 9997 2 43132 97.3608 23.0592 0006540 213.1690 146.9144 15.35534749267668 AO-92 1 43137U 18004AC 22307.21348746 .00020098 00000-0 64335-3 0 9993 2 43137 97.3567 21.2690 0006390 219.9311 140.1462 15.32411851267577 TianYi 2 1 43155U 18008A 22307.49254517 .00012461 00000-0 62420-3 0 9997 2 43155 97.3360 1.4578 0016432 25.6517 89.4917 15.17391460264349 Zhou Enlai 1 43156U 18008B 22307.52348082 .00013354 00000-0 67183-3 0 9996 2 43156 97.3398 1.4091 0013395 27.4649 79.8849 15.17266361264272 TianYi 6 1 43158U 18008D 22307.40692310 .00011165 00000-0 58427-3 0 9990 2 43158 97.3350 358.9727 0013389 28.3167 35.9383 15.15922646264141 S-Net D 1 43186U 18014G 22307.28763153 .00004306 00000-0 36475-3 0 9996 2 43186 97.6468 210.3135 0010432 178.2029 181.9233 14.98465174259707 S-Net B 1 43187U 18014H 22307.48829734 .00004425 00000-0 37469-3 0 9993 2 43187 97.6462 210.4551 0010405 177.4171 182.7107 14.98464738259731 S-Net A 1 43188U 18014J 22307.28827502 .00004286 00000-0 36314-3 0 9996 2 43188 97.6467 210.3306 0010364 178.1154 182.0109 14.98463020259702 S-Net C 1 43189U 18014K 22307.28925479 .00004277 00000-0 36243-3 0 9990 2 43189 97.6463 210.2467 0010314 177.9115 182.2153 14.98460157258253 FMN 1 1 43192U 18015A 22307.54568141 .00071086 00000-0 13401-2 0 9995 2 43192 97.5501 97.3638 0010550 250.7888 173.9529 15.48190364264888 Shaonian Xing 1 43199U 18015H 22307.55152580 .00034169 00000-0 86586-3 0 9995 2 43199 97.5308 90.9496 0011700 262.8198 161.4681 15.39575035264802 SurfSat 1 43614U 18070B 22307.57372173 .00118884 00000-0 98305-3 0 9991 2 43614 93.0073 158.1700 0007537 155.7162 204.4466 15.69892166232762 CP-7 DAVE 1 43615U 18070C 22307.11632827 .00092758 00000-0 88331-3 0 9996 2 43615 93.0063 157.6360 0007926 163.4191 196.7339 15.66489158232636 CubeBel-1 1 43666U 18083E 22307.62595678 .00016104 00000-0 62903-3 0 9992 2 43666 97.4103 334.8784 0011750 194.7223 263.5260 15.25902514222688 Changshagaoxin 1 43669U 18083H 22307.63407485 .00014975 00000-0 61685-3 0 9994 2 43669 97.4059 330.4327 0008592 190.4266 319.6945 15.24165580222480 Ten-Koh 1 43677U 18084G 22307.37330725 .00002961 00000-0 30088-3 0 9992 2 43677 97.9832 78.8769 0015906 169.4027 190.7529 14.91510565218384 PO-101 1 43678U 18084H 22307.38276166 .00001166 00000-0 11948-3 0 9992 2 43678 97.9909 82.4635 0009535 180.1045 180.0190 14.92437992218574 IRVINE 01 1 43693U 18088D 22307.24856245 .00126897 00000-0 20390-2 0 9999 2 43693 85.0267 215.9680 0004732 5.6780 354.4531 15.52559629221625 QO-100 1 43700U 18090A 22307.48272841 .00000136 00000-0 00000-0 0 9992 2 43700 0.0162 263.3744 0001170 328.0437 10.9069 1.00273040 14423 Reaktor Hello World 1 43743U 18096AA 22307.46153646 .00026142 00000-0 70058-3 0 9992 2 43743 97.3431 26.9847 0012479 279.9037 80.0799 15.37897848219292 MinXSS-2 1 43758U 18099A 22307.41296062 .00005857 00000-0 49651-3 0 9991 2 43758 97.6119 11.9369 0015547 151.6694 208.5378 14.98239197213906 AO-95 1 43770U 18099N 22307.44518010 .00004829 00000-0 42192-3 0 9999 2 43770 97.6052 10.1279 0014463 165.0597 195.1056 14.97159571213803 RANGE-B 1 43772U 18099Q 22307.44030254 .00006285 00000-0 53591-3 0 9993 2 43772 97.6173 12.1502 0013771 153.2135 206.9802 14.98008391213835 RANGE-A 1 43773U 18099R 22307.41249829 .00002853 00000-0 25526-3 0 9995 2 43773 97.5987 8.7405 0013747 151.2483 208.9500 14.96565855213779 MOVE-II 1 43780U 18099Y 22307.46728592 .00009529 00000-0 78997-3 0 9994 2 43780 97.6111 11.6542 0013712 154.7913 205.3982 14.98960298213878 SNUSat 2 1 43782U 18099AA 22307.47876877 .00004319 00000-0 37687-3 0 9990 2 43782 97.6076 10.6578 0013004 147.6950 212.5071 14.97286661213833 SnugLite 1 43784U 18099AC 22307.42712829 .00004396 00000-0 38056-3 0 9999 2 43784 97.6024 10.2331 0014731 158.4079 201.7768 14.97562831213852 ITASat 1 1 43786U 18099AE 22307.42871454 .00003595 00000-0 31499-3 0 9995 2 43786 97.6089 11.1011 0014915 157.9863 202.2003 14.97211027213844 EAGLET 1 1 43790U 18099AJ 22307.17857725 .00003094 00000-0 27153-3 0 9993 2 43790 97.6072 11.4013 0013446 162.0211 198.1490 14.97262546213540 ESEO 1 43792U 18099AL 22307.44097563 .00001820 00000-0 16496-3 0 9994 2 43792 97.6023 10.6543 0013567 158.3661 201.8137 14.96502180213616 CSIM 1 43793U 18099AM 22307.17804970 .00007514 00000-0 61399-3 0 9991 2 43793 97.6094 12.4212 0013192 158.4443 201.7338 14.99593066213664 Astrocast 0.1 1 43798U 18099AS 22307.40075267 .00006458 00000-0 54167-3 0 9992 2 43798 97.6100 12.3261 0013556 135.8770 224.3537 14.98633038213919 JO-97 1 43803U 18099AX 22307.46111150 .00006153 00000-0 52630-3 0 9992 2 43803 97.6047 10.9371 0015451 154.8438 205.3541 14.97872795213873 Suomi 100 1 43804U 18099AY 22307.42273460 .00003981 00000-0 34360-3 0 9998 2 43804 97.6051 10.7920 0014849 156.1953 203.9959 14.97732689213878 Al Farabi 2 1 43805U 18099AZ 22307.61599488 .00006268 00000-0 52702-3 0 9992 2 43805 97.6090 11.6412 0014659 151.1037 209.1001 14.98543161213934 CHOMPTT 1 43855U 18104G 22307.48677214 .00014981 00000-0 51200-3 0 9996 2 43855 85.0320 318.3134 0017150 84.3462 275.9739 15.30014049215961 ISAT 1 43879U 18111D 22307.43501467 .00005810 00000-0 48462-3 0 9998 2 43879 97.6551 210.5051 0010483 204.5495 155.5230 14.98928056210483 UWE-4 1 43880U 18111E 22307.42571689 .00006470 00000-0 53773-3 0 9996 2 43880 97.6580 211.2799 0010070 200.2713 159.8112 14.99026726210516 Sparrow 1 43881U 18111F 22307.56037566 .00006809 00000-0 56242-3 0 9993 2 43881 97.6598 211.6980 0010089 195.8483 164.2426 14.99244884210543 Lume 1 1 43908U 18111AJ 22307.21253946 .00020197 00000-0 62498-3 0 9993 2 43908 97.1694 190.7247 0015286 303.2035 56.7742 15.33394851214639 FO-99 1 43937U 19003F 22307.53103920 .00024068 00000-0 71716-3 0 9991 2 43937 97.1185 335.6786 0019182 22.0737 338.1329 15.34488016211271 MYSat 1 1 44045U 18092F 22306.83204897 .00252433 00000-0 15153-2 0 9997 2 44045 51.6248 94.3193 0010722 275.8405 84.1373 15.76408141209506 AstroCast 0.2 1 44083U 19018F 22307.10950550 .00020098 00000-0 68357-3 0 9998 2 44083 97.3056 3.4824 0008571 1.4520 358.6744 15.30437655199662 AISTechSat 3 1 44103U 19018AB 22307.39495132 .00016191 00000-0 55529-3 0 9998 2 44103 97.2919 3.9724 0011283 10.6201 349.5276 15.30186348199870 AISat 1 1 44104U 19018AC 22307.48024695 .00014066 00000-0 36544-3 0 9996 2 44104 97.3889 31.2849 0049151 356.3966 3.6918 15.37804594200942 Prox-1 1 44339U 19036A 22307.51439345 .00006656 00000-0 14355-2 0 9993 2 44339 24.0019 35.0652 0010175 305.4472 54.5070 14.55994691178630 Oculus-ASR 1 44348U 19036K 22307.38227889 .00111575 -31667-5 72552-3 0 9996 2 44348 28.4959 302.0235 0176226 90.4543 271.6255 15.56048291186044 NO-104 1 44354U 19036R 22307.27631843 .00131522 -19015-5 77584-3 0 9997 2 44354 28.5200 284.2479 0163868 115.4640 246.3015 15.60130377186210 Move-IIb 1 44398U 19038N 22307.58354560 .00024141 00000-0 10397-2 0 9993 2 44398 97.6454 278.6240 0020312 14.5007 345.6815 15.22404822184172 SONATE 1 44400U 19038Q 22307.60138375 .00009757 00000-0 50671-3 0 9990 2 44400 97.6546 276.9727 0023859 18.6091 341.6010 15.16069248184003 BeeSat 9 1 44412U 19038AC 22307.48455196 .00018037 00000-0 85041-3 0 9992 2 44412 97.6526 278.1137 0020061 20.6445 339.5595 15.19367096183784 JAISAT-1 1 44419U 19038F 22307.36128670 .00016454 00000-0 76645-3 0 9991 2 44419 97.6525 278.9327 0018979 18.7264 341.4665 15.19825129184137 LightSail-2 1 44420U 19036AC 22307.33200006 .00791385 00000-0 32217-1 0 9990 2 44420 23.9914 283.9454 0018164 186.2959 173.7320 15.20691600177838 Taurus 1 1 44530U 19059C 22307.51747166 .00003318 00000-0 91045-3 0 9998 2 44530 98.5506 47.4368 0013717 63.4185 296.8452 14.47687270165968 Duchifat 3 1 44854U 19089C 22307.49103934 .00006738 00000-0 50762-3 0 9996 2 44854 36.9659 355.5232 0008166 274.6958 85.2857 15.02151528158843 OPS-SAT 1 44878U 19092F 22307.45555069 .00019525 00000-0 83638-3 0 9998 2 44878 97.4793 130.4626 0011112 211.0225 149.0356 15.22762676159325 TO-108 1 44881U 19093C 22307.48089638 .00000960 00000-0 12775-3 0 9997 2 44881 97.8836 24.6362 0016313 93.2456 267.0634 14.81904057155361 FloripaSat 1 1 44885U 19093G 22307.43767737 .00003272 00000-0 40157-3 0 9993 2 44885 97.8890 26.2816 0015581 98.4076 261.8906 14.83697125155459 RS-44 1 44909U 19096E 22307.51156836 .00000036 00000-0 10384-3 0 9998 2 44909 82.5179 137.9114 0217354 354.8765 5.0111 12.79716388133294 BY70-2 1 45857U 20042B 22307.50854058 .00011658 00000-0 14817-2 0 9990 2 45857 97.9467 23.1168 0010188 31.1706 329.0142 14.81750346126032 UPMSat 2 1 46276U 20061E 22307.20224751 .00007385 00000-0 35264-3 0 9997 2 46276 97.3782 14.8416 0002741 70.6892 289.4639 15.19327427119938 AmicalSat 1 46287U 20061R 22307.13766615 .00010054 00000-0 55391-3 0 9991 2 46287 97.4326 13.5745 0003306 137.1128 223.0362 15.14196302119449 SALSAT 1 46495U 20068K 22307.33950609 .00004166 00000-0 29567-3 0 9992 2 46495 97.7411 248.8134 0016636 161.5800 198.6032 15.05194696115071 BY70-3 1 46839U 20079N 22307.56456399 .00055010 00000-0 98947-3 0 9990 2 46839 97.1831 18.3177 0005075 175.6224 291.7856 15.49652425111725 CAPE 3 1 47309U 21002A 22307.13053369 .00021110 00000-0 76224-3 0 9991 2 47309 60.6816 201.9446 0040855 64.4561 296.0744 15.27748947 99617 AO-109 1 47311U 21002C 22307.08244259 .00017462 00000-0 63249-3 0 9996 2 47311 60.6843 199.5491 0037021 63.9152 296.5740 15.27902055 99627 MiTEE 1 1 47314U 21002F 22307.36687949 .00041292 00000-0 11470-2 0 9993 2 47314 60.6798 186.9877 0033541 58.9662 301.4717 15.36056114 99884 ExoCube 2 1 47319U 21002L 22307.25350259 .00017574 00000-0 64498-3 0 9992 2 47319 60.6826 200.3015 0038431 65.0867 295.4208 15.27415327 99595 UVSQ-SAT 1 47438U 21006AB 22307.11593992 .00011943 00000-0 59831-3 0 9995 2 47438 97.4211 3.2924 0012278 147.7752 212.4234 15.17454931 98291 YUSAT 1 1 47439U 21006AC 22307.42967280 .00014856 00000-0 72675-3 0 9992 2 47439 97.4223 3.8270 0012114 145.7594 214.4424 15.18237763 98359 SOMP 2b 1 47445U 21006AJ 22307.41189483 .00009629 00000-0 48941-3 0 9990 2 47445 97.4185 3.1219 0012031 150.1946 209.9975 15.17007216 98322 IDEASSat 1 47458U 21006AX 22307.40889701 .00009851 00000-0 50313-3 0 9996 2 47458 97.4273 3.7429 0011258 148.4836 211.7074 15.16838534 98315 CubeSX-Sirius-HSE 1 47951U 21022V 22307.52322139 .00008141 00000-0 52032-3 0 9993 2 47951 97.5145 204.0942 0022007 34.6319 88.2961 15.08685452 88955 CubeSX-HSE 1 47952U 21022W 22307.56234699 .00007628 00000-0 48708-3 0 9995 2 47952 97.5135 204.1625 0022084 33.8536 38.8301 15.08739635 88964 KSU-Cubesat 1 47954U 21022Y 22307.22257431 .00008461 00000-0 53497-3 0 9996 2 47954 97.5145 203.9953 0021350 34.6968 325.5648 15.09080875 88642 GRBAlpha 1 47959U 21022AD 22307.55995581 .00007552 00000-0 48180-3 0 9995 2 47959 97.5142 204.2092 0022059 34.0470 50.6090 15.08776218 87784 Orbicraft-Zorkiy 1 47960U 21022AE 22307.52131127 .00009084 00000-0 57470-3 0 9996 2 47960 97.5171 204.3759 0021488 33.9080 68.5146 15.09031766 88479 STECCO 1 47962U 21022AG 22307.65098725 .00013687 00000-0 80505-3 0 9997 2 47962 97.5136 205.5865 0016353 28.1562 356.8784 15.11662611 87886 DO-111 1 47963U 21022AH 22307.52994257 .00040610 00000-0 19478-2 0 9995 2 47963 97.5178 207.5697 0016641 22.6273 337.5691 15.18646394 88012 MO-110 1 47964U 21022AJ 22307.25680064 .00014729 00000-0 85455-3 0 9995 2 47964 97.5154 205.5532 0018909 25.6112 334.6051 15.12098979 87849 FEES 1 48082U 21022AL 22307.24498069 .00020391 00000-0 11400-2 0 9998 2 48082 97.5158 205.6422 0015232 24.7808 335.4152 15.13414359 87556 TUBIN 1 48900U 21059X 22307.53587855 .00006812 00000-0 36744-3 0 9992 2 48900 97.5726 75.9674 0009629 350.7428 141.0803 15.15052257 74968 IT-SPINS 1 49017U 21013G 22307.45218668 .00019452 00000-0 68033-3 0 9996 2 49017 51.5958 93.2290 0008010 219.0789 140.9613 15.29504870 75036 LEDSAT 1 49069U 21073D 22307.15714272 .00008100 00000-0 50049-3 0 9994 2 49069 97.5113 17.2921 0026612 176.3102 183.8329 15.09829402 66753 CUTE 1 49263U 21088D 22307.15127430 .00007080 00000-0 51112-3 0 9998 2 49263 97.5735 12.2881 0018595 315.2147 44.7577 15.04268196 60265 TeikyoSat 4 1 49396U 21102B 22307.10494674 .00002682 00000-0 21377-3 0 9997 2 49396 97.5357 0.8221 0016481 142.9022 217.3345 15.01066485 53843 Z-Sat 1 49399U 21102E 22307.52795566 .00002421 00000-0 18299-3 0 9990 2 49399 97.5187 2.4111 0024070 115.6357 244.7359 15.03057155 53973 KOSEN 1 1 49402U 21102H 22307.22173149 .00003917 00000-0 28411-3 0 9997 2 49402 97.5146 2.3352 0023779 107.8008 252.5815 15.04267494 53963 HO-113 1 50466U 21131B 22307.49237657 .00000453 00000-0 16245-3 0 9999 2 50466 98.5715 24.6163 0005667 97.4908 262.6923 14.38564396 44907 Tevel 1 50999U 22002R 22307.48542584 .00012989 00000-0 65905-3 0 9999 2 50999 97.4655 12.3743 0009275 300.4746 175.6245 15.17019343 44481 Grizu-263a 1 51025U 22002AT 22307.19228341 .00027947 00000-0 12633-2 0 9999 2 51025 97.4834 13.5347 0010342 302.9432 57.0808 15.20856196 44498 NO-116 1 51031U 22002AZ 22307.41812112 .00020538 00000-0 98753-3 0 9993 2 51031 97.4788 13.2122 0011063 303.3495 56.6680 15.18779580 44509 IRIS-A 1 51044U 22002BN 22307.13276496 .00008356 00000-0 45440-3 0 9994 2 51044 97.4676 11.4909 0007816 311.1905 48.8652 15.14696144 44395 DELFI-PQ 1 51074U 22002CU 22307.19514028 .00021596 00000-0 98574-3 0 9996 2 51074 97.4920 14.1523 0011942 336.0415 24.0263 15.20560784 44514 SO-115 1 51080U 22002DA 22306.41552124 .00014729 00000-0 70778-3 0 9992 2 51080 97.4934 13.0987 0012213 340.4748 19.6017 15.18862372 44374 SO-114 1 51081U 22002DB 22307.14041920 .00015394 00000-0 73882-3 0 9999 2 51081 97.4923 13.7856 0012396 337.2720 22.7964 15.18893484 44487 OreSat0 1 52017U 22026K 22307.44777508 .00011917 00000-0 60055-3 0 9991 2 52017 97.5085 305.7064 0027336 148.1313 212.1581 15.16984927 35244 Planetum 1 1 52738U 22057G 22307.30771312 .00010614 00000-0 59383-3 0 9992 2 52738 97.5236 59.8941 0008997 58.8254 301.3858 15.13605519 24426 Foresail-1 1 52766U 22057AL 22307.59832962 .00007906 00000-0 43106-3 0 9999 2 52766 97.5336 60.6922 0014003 37.6325 90.4753 15.14566411 24480 SNUGLITE 2 1 52899U 22065F 22307.36539846 .00001036 00000-0 23254-3 0 9995 2 52899 98.0378 94.0683 0007735 194.1726 165.9281 14.58522362 17943 CTIM 1 52950U 22074G 22307.61075485 .00023419 00000-0 88170-3 0 9992 2 52950 45.0036 161.9664 0005739 251.0130 109.0087 15.26756188 18979 GREENCUBE 1 53106U 22080B 22305.50239172 -.00000003 00000-0 00000-0 0 9992 2 53106 70.1747 38.8194 0008848 234.0978 125.8861 6.42557499 7129 AstroBioCubeSat 1 53107U 22080C 22301.53006403 -.00000003 00000-0 00000-0 0 9991 2 53107 70.1628 40.2681 0012971 228.3400 131.5995 6.42110486 6777 CELESTA 1 53111U 22080G 22255.68754390 -.00000003 00000-0 00000 0 0 9994 2 53111 70.1403 56.1372 0009077 226.1587 107.2159 6.42542501 3799 RS4S 1 53306U 98067TZ 22307.51915428 .00123676 00000-0 13503-2 0 9995 2 53306 51.6393 2.6988 0007732 24.3236 335.8122 15.62415918 16326 RS3S 1 53308U 98067TT 22307.52345384 .00119753 00000-0 13221-2 0 9994 2 53308 51.6390 2.7242 0007641 22.5002 337.6326 15.62146388 16383 RS1S 1 53309U 98067TU 22307.51248832 .00124473 00000-0 13505-2 0 9994 2 53309 51.6385 2.6468 0007836 27.4572 332.6835 15.62572945 16336 RS5S 1 53310U 98067TV 22307.52250768 .00120012 00000-0 13237-2 0 9995 2 53310 51.6389 2.7181 0007482 27.2028 332.9356 15.62171101 16369 RS6S 1 53311U 98067TW 22307.56423222 .00125742 00000-0 13471-2 0 9992 2 53311 51.6390 2.2412 0007844 19.0347 341.0939 15.62892378 16396 RS9S 1 53312U 98067TX 22307.44679163 .00115845 00000-0 12615-2 0 9999 2 53312 51.6396 2.9628 0007881 29.3343 330.8092 15.62513676 16319 RS12S 1 53313U 98067TY 22307.44500160 .00119250 00000-0 12988-2 0 9997 2 53313 51.6394 2.9509 0007357 27.9507 332.1881 15.62499929 16360 JAGSAT 1 53771U 98067UJ 22307.51185701 .00134276 00000-0 15613-2 0 9996 2 53771 51.6399 4.1486 0007656 43.4802 316.6794 15.60745251 9052 SelfieSat 1 53951U 22057BA 22307.52736711 .00013545 00000-0 75057-3 0 9990 2 53951 97.5289 60.3189 0011110 49.3200 310.8995 15.13871290 24462 /EX
